• In Czech Republic
  • List of Countries
  • For 7 days
  • Water Temperature
  • Satellite Maps
  • Weather Map
  • Weather Widgets
  • user-avatar
    Login

    Hourly Weather Nkongsamba

    Today, 25 February, Sunday

    Time Temperature Precipitation Wind Pressure Humidity
    00:00 +23°C° 0.1 mm 1 mps 685 mmHg 86%
    01:00 +21°C° 0 mm 0 mps 685 mmHg 89%
    02:00 +20°C° 0 mm 0 mps 684 mmHg 89%
    03:00 +20°C° 0 mm 0 mps 684 mmHg 89%
    04:00 +20°C° 0 mm 0 mps 684 mmHg 89%
    05:00 +20°C° 0 mm 0 mps 685 mmHg 89%
    06:00 +20°C° 0 mm 0 mps 685 mmHg 89%
    07:00 +22°C° 0 mm 1 mps 685 mmHg 86%
    08:00 +25°C° 0 mm 1 mps 686 mmHg 75%
    09:00 +28°C° 0 mm 1 mps 687 mmHg 64%
    10:00 +30°C° 0 mm 1 mps 687 mmHg 52%
    11:00 +32°C° 0.1 mm 1 mps 687 mmHg 48%
    12:00 +33°C° 0.1 mm 1 mps 687 mmHg 43%
    13:00 +34°C° 0.1 mm 1 mps 686 mmHg 39%
    14:00 +33°C° 0.4 mm 1 mps 685 mmHg 42%
    15:00 +32°C° 0.4 mm 1 mps 685 mmHg 45%
    16:00 +31°C° 0.4 mm 2 mps 684 mmHg 48%
    17:00 +29°C° 0.7 mm 1 mps 684 mmHg 57%
    18:00 +27°C° 0.7 mm 1 mps 684 mmHg 65%
    19:00 +26°C° 0.7 mm 1 mps 684 mmHg 73%
    20:00 +25°C° 0.5 mm 1 mps 684 mmHg 78%
    21:00 +24°C° 0.5 mm 1 mps 684 mmHg 82%
    22:00 +23°C° 0.5 mm 1 mps 685 mmHg 86%
    23:00 +23°C° 0.1 mm 1 mps 684 mmHg 88%

    Tomorrow, 26 February, Monday

    Time Temperature Precipitation Wind Pressure Humidity
    00:00 +23°C° 0.1 mm 1 mps 684 mmHg 89%
    01:00 +22°C° 0.1 mm 1 mps 684 mmHg 91%
    02:00 +22°C° 0.1 mm 1 mps 684 mmHg 91%
    03:00 +22°C° 0.1 mm 1 mps 684 mmHg 92%
    04:00 +22°C° 0.1 mm 1 mps 684 mmHg 93%
    05:00 +22°C° 0.1 mm 1 mps 684 mmHg 93%
    06:00 +20°C° 0.1 mm 0 mps 685 mmHg 93%
    07:00 +20°C° 0.1 mm 0 mps 685 mmHg 93%
    08:00 +22°C° 0.1 mm 0 mps 686 mmHg 85%
    09:00 +26°C° 0.1 mm 1 mps 686 mmHg 76%
    10:00 +28°C° 0.1 mm 1 mps 687 mmHg 67%
    11:00 +28°C° 0.7 mm 1 mps 686 mmHg 65%
    12:00 +29°C° 0.7 mm 1 mps 686 mmHg 62%
    13:00 +30°C° 0.7 mm 1 mps 686 mmHg 60%
    14:00 +29°C° 1.6 mm 1 mps 685 mmHg 64%
    15:00 +28°C° 1.6 mm 1 mps 684 mmHg 67%
    16:00 +27°C° 1.6 mm 1 mps 684 mmHg 71%
    17:00 +26°C° 1.9 mm 1 mps 684 mmHg 77%
    18:00 +24°C° 1.9 mm 1 mps 684 mmHg 82%
    19:00 +23°C° 1.9 mm 1 mps 684 mmHg 88%
    20:00 +23°C° 0.8 mm 1 mps 685 mmHg 90%
    21:00 +22°C° 0.8 mm 1 mps 685 mmHg 91%
    22:00 +22°C° 0.8 mm 1 mps 686 mmHg 93%
    23:00 +22°C° 0.2 mm 1 mps 686 mmHg 93%

    Day after tomorrow, 27 February, Tuesday

    Time Temperature Precipitation Wind Pressure Humidity
    00:00 +22°C° 0.2 mm 1 mps 685 mmHg 93%
    01:00 +20°C° 0.2 mm 0 mps 685 mmHg 93%
    02:00 +19°C° 0 mm 0 mps 685 mmHg 94%
    03:00 +19°C° 0 mm 0 mps 685 mmHg 95%
    04:00 +19°C° 0 mm 0 mps 684 mmHg 95%
    05:00 +19°C° 0 mm 0 mps 685 mmHg 95%
    06:00 +19°C° 0 mm 0 mps 685 mmHg 95%
    07:00 +19°C° 0 mm 0 mps 685 mmHg 95%
    08:00 +21°C° 0 mm 0 mps 686 mmHg 87%
    09:00 +24°C° 0 mm 1 mps 687 mmHg 80%
    10:00 +26°C° 0 mm 1 mps 688 mmHg 73%
    11:00 +27°C° 0.1 mm 1 mps 687 mmHg 67%
    12:00 +28°C° 0.1 mm 1 mps 687 mmHg 61%
    13:00 +30°C° 0.1 mm 1 mps 686 mmHg 55%
    14:00 +29°C° 0.7 mm 1 mps 686 mmHg 56%
    15:00 +29°C° 0.7 mm 1 mps 685 mmHg 57%
    16:00 +29°C° 0.7 mm 1 mps 684 mmHg 58%
    17:00 +27°C° 0.8 mm 1 mps 684 mmHg 67%
    18:00 +25°C° 0.8 mm 1 mps 684 mmHg 75%
    19:00 +24°C° 0.8 mm 1 mps 684 mmHg 84%
    20:00 +21°C° 0.1 mm 0 mps 685 mmHg 86%
    21:00 +21°C° 0.1 mm 0 mps 685 mmHg 89%
    22:00 +20°C° 0.1 mm 0 mps 686 mmHg 91%
    23:00 +20°C° 0 mm 0 mps 686 mmHg 92%

    28 February, Wednesday

    Time Temperature Precipitation Wind Pressure Humidity
    00:00 +20°C° 0 mm 0 mps 686 mmHg 93%
    01:00 +20°C° 0 mm 0 mps 686 mmHg 94%
    02:00 +19°C° 0 mm 0 mps 685 mmHg 94%
    03:00 +19°C° 0 mm 0 mps 685 mmHg 94%
    04:00 +19°C° 0 mm 0 mps 684 mmHg 95%
    05:00 +19°C° 0 mm 0 mps 685 mmHg 94%
    06:00 +19°C° 0 mm 0 mps 685 mmHg 94%
    07:00 +19°C° 0 mm 0 mps 685 mmHg 94%
    08:00 +22°C° 0 mm 0 mps 686 mmHg 83%
    09:00 +24°C° 0 mm 0 mps 687 mmHg 72%
    10:00 +29°C° 0 mm 1 mps 688 mmHg 61%
    11:00 +30°C° 0.1 mm 1 mps 687 mmHg 57%
    12:00 +31°C° 0.1 mm 1 mps 687 mmHg 52%
    13:00 +32°C° 0.1 mm 1 mps 686 mmHg 48%
    14:00 +31°C° 1.3 mm 1 mps 685 mmHg 51%
    15:00 +30°C° 1.3 mm 1 mps 685 mmHg 55%
    16:00 +30°C° 1.3 mm 1 mps 684 mmHg 58%
    17:00 +28°C° 1.5 mm 1 mps 684 mmHg 67%
    18:00 +26°C° 1.5 mm 1 mps 684 mmHg 75%
    19:00 +24°C° 1.5 mm 1 mps 684 mmHg 84%
    20:00 +23°C° 1 mm 1 mps 685 mmHg 86%
    21:00 +21°C° 1 mm 0 mps 685 mmHg 87%
    22:00 +21°C° 1 mm 0 mps 686 mmHg 89%
    23:00 +21°C° 0.4 mm 0 mps 686 mmHg 90%

    1 March, Thursday

    Time Temperature Precipitation Wind Pressure Humidity
    00:00 +20°C° 0.4 mm 0 mps 685 mmHg 90%
    01:00 +20°C° 0.4 mm 0 mps 685 mmHg 90%
    02:00 +20°C° 0.1 mm 0 mps 685 mmHg 91%
    03:00 +20°C° 0.1 mm 0 mps 684 mmHg 92%
    04:00 +19°C° 0.1 mm 0 mps 684 mmHg 93%
    05:00 +19°C° 0 mm 0 mps 685 mmHg 93%
    06:00 +19°C° 0 mm 0 mps 685 mmHg 93%
    07:00 +21°C° 0 mm 1 mps 686 mmHg 93%
    08:00 +23°C° 0 mm 1 mps 686 mmHg 84%
    09:00 +25°C° 0 mm 1 mps 687 mmHg 75%
    10:00 +27°C° 0 mm 1 mps 688 mmHg 66%
    11:00 +29°C° 0.1 mm 1 mps 687 mmHg 60%
    12:00 +30°C° 0.1 mm 1 mps 687 mmHg 54%
    13:00 +31°C° 0.1 mm 1 mps 686 mmHg 48%
    14:00 +31°C° 0.6 mm 2 mps 686 mmHg 50%
    15:00 +30°C° 0.6 mm 2 mps 685 mmHg 53%
    16:00 +29°C° 0.6 mm 2 mps 684 mmHg 55%
    17:00 +28°C° 1.1 mm 2 mps 684 mmHg 64%
    18:00 +26°C° 1.1 mm 1 mps 684 mmHg 73%
    19:00 +24°C° 1.1 mm 1 mps 684 mmHg 83%
    20:00 +23°C° 0.2 mm 1 mps 685 mmHg 85%
    21:00 +23°C° 0.2 mm 1 mps 686 mmHg 88%
    22:00 +22°C° 0.2 mm 1 mps 686 mmHg 91%
    23:00 +22°C° 0.1 mm 1 mps 686 mmHg 92%

    2 March, Friday

    Time Temperature Precipitation Wind Pressure Humidity
    00:00 +22°C° 0.1 mm 1 mps 686 mmHg 93%
    01:00 +20°C° 0.1 mm 0 mps 685 mmHg 93%
    02:00 +19°C° 0 mm 0 mps 685 mmHg 94%
    03:00 +19°C° 0 mm 0 mps 685 mmHg 94%
    04:00 +19°C° 0 mm 0 mps 684 mmHg 94%
    05:00 +19°C° 0 mm 0 mps 685 mmHg 94%
    06:00 +19°C° 0 mm 0 mps 685 mmHg 94%
    07:00 +19°C° 0 mm 0 mps 685 mmHg 93%
    08:00 +22°C° 0 mm 0 mps 686 mmHg 83%
    09:00 +24°C° 0 mm 0 mps 687 mmHg 72%
    10:00 +28°C° 0 mm 1 mps 687 mmHg 61%
    11:00 +30°C° 0 mm 1 mps 687 mmHg 55%
    12:00 +31°C° 0 mm 1 mps 686 mmHg 48%
    13:00 +33°C° 0 mm 1 mps 686 mmHg 42%
    14:00 +32°C° 0.2 mm 2 mps 685 mmHg 46%
    15:00 +31°C° 0.2 mm 2 mps 685 mmHg 50%
    16:00 +30°C° 0.2 mm 2 mps 684 mmHg 54%
    17:00 +28°C° 0.6 mm 2 mps 684 mmHg 61%
    18:00 +26°C° 0.6 mm 1 mps 684 mmHg 69%
    19:00 +24°C° 0.6 mm 1 mps 684 mmHg 77%
    20:00 +24°C° 0.1 mm 1 mps 685 mmHg 80%
    21:00 +23°C° 0.1 mm 1 mps 685 mmHg 83%
    22:00 +23°C° 0.1 mm 1 mps 685 mmHg 86%
    23:00 +22°C° 0 mm 1 mps 685 mmHg 87%
    Show more